Date String (YYYY-MM-DD hh:mm:ss) UTC,Instrument flags,Ambient pressure (hPa),Sample flow (lpm),Bypass flow (lpm),Sample temperature (°C),Ambient temperature (°C),ASC tube jacket temperature (°C),LED temperature (°C),Box temperature (°C),Sample RH (%),Span deviation,Mass concentration (μg/m³),Mass concentration (μg/m³),Mass concentration (μg/m³)
DateTimeUTC,F1_M11,P_M11,Q1_M11,Q2_M11,T1_M11,T2_M11,T3_M11,T4_M11,T5_M11,U1_M11,ZSPAN_M11,X0_M11,X2_M11,X1_M11
2021-09-23 06:00:00,,0829.0,5.01,0.00,30.2,29.1,00.0,39.4,31.9,09.3,0000.0,0004.33,0002.23,0001.65
2021-09-23 06:01:00,,0829.0,5.00,0.00,30.2,29.1,00.0,39.4,31.9,09.3,0000.0,0004.30,0002.21,0001.63
2021-09-23 06:02:00,,0828.9,4.99,0.00,30.2,29.1,00.0,39.4,31.9,09.3,0000.0,0005.21,0002.24,0001.61
2021-09-23 06:03:00,,0829.0,5.00,0.00,30.2,29.1,00.0,39.4,31.9,09.3,0000.0,0005.08,0002.19,0001.60
2021-09-23 06:04:00,,0829.0,5.00,0.00,30.2,29.1,00.0,39.4,31.9,09.3,0000.0,0005.57,0002.23,0001.59
2021-09-23 06:05:00,,0829.0,5.01,0.00,30.2,29.2,00.0,39.4,31.9,09.3,0000.0,0005.44,0002.24,0001.57
2021-09-23 06:06:00,,0828.9,4.99,0.00,30.2,29.2,00.0,39.4,31.9,09.2,0000.0,0005.59,0002.22,0001.55
2021-09-23 06:07:00,,0828.9,5.01,0.00,30.2,29.2,00.0,39.4,31.9,09.2,0000.0,0006.77,0002.22,0001.54
2021-09-23 06:08:00,,0828.9,5.00,0.00,30.2,29.1,00.0,39.4,31.9,09.3,0000.0,0007.42,0002.22,0001.54
2021-09-23 06:09:00,,0828.9,4.99,0.00,30.2,29.1,00.0,39.4,31.9,09.4,0000.0,0007.94,0002.21,0001.54
2021-09-23 06:10:00,,0828.9,5.00,0.00,30.2,29.2,00.0,39.4,32.0,09.3,0000.0,0008.61,0002.22,0001.54
2021-09-23 06:11:00,,0828.9,5.00,0.00,30.2,29.2,00.0,39.4,31.9,09.3,0000.0,0008.66,0002.21,0001.54
2021-09-23 06:12:00,,0828.8,5.00,0.00,30.2,29.2,00.0,39.4,31.9,09.3,0000.0,0008.68,0002.21,0001.53
2021-09-23 06:13:00,,0828.9,5.02,0.00,30.2,29.2,00.0,39.4,31.9,09.3,0000.0,0008.16,0002.12,0001.53
2021-09-23 06:14:00,,0828.9,4.99,0.00,30.2,29.2,00.0,39.4,31.9,09.2,0000.0,0008.14,0002.13,0001.53
2021-09-23 06:15:00,,0828.8,5.00,0.00,30.3,29.2,00.0,39.4,32.0,09.2,0000.0,0007.93,0002.14,0001.53
2021-09-23 06:16:00,,0828.9,5.00,0.00,30.3,29.2,00.0,39.4,32.0,09.2,0000.0,0007.86,0002.13,0001.52
2021-09-23 06:17:00,,0828.9,5.01,0.00,30.3,29.2,00.0,39.4,32.0,09.1,0000.0,0007.76,0002.15,0001.52
2021-09-23 06:18:00,,0828.9,5.01,0.00,30.3,29.2,00.0,39.4,31.9,09.1,0000.0,0006.81,0002.11,0001.51
2021-09-23 06:19:00,,0828.9,4.99,0.00,30.3,29.3,00.0,39.4,32.0,09.1,0000.0,0005.95,0002.06,0001.49
2021-09-23 06:20:00,,0828.9,5.02,0.00,30.3,29.3,00.0,39.4,32.0,09.0,0000.0,0005.75,0002.00,0001.45
2021-09-23 06:21:00,,0829.0,4.99,0.00,30.3,29.3,00.0,39.4,32.0,08.6,0000.0,0004.46,0001.93,0001.41
2021-09-23 06:22:00,,0829.0,5.02,0.00,30.3,29.3,00.0,39.4,32.0,08.6,0000.0,0004.15,0001.87,0001.37
2021-09-23 06:23:00,,0829.0,5.00,0.00,30.3,29.3,00.0,39.4,32.0,08.4,0000.0,0004.73,0001.83,0001.33
2021-09-23 06:24:00,,0829.0,5.00,0.00,30.3,29.3,00.0,39.5,32.0,08.4,0000.0,0005.85,0001.81,0001.29
2021-09-23 06:25:00,,0828.9,5.01,0.00,30.3,29.3,00.0,39.5,32.0,08.5,0000.0,0006.18,0001.77,0001.26
2021-09-23 06:26:00,,0828.9,4.99,0.00,30.3,29.3,00.0,39.5,32.0,08.7,0000.0,0007.04,0001.73,0001.23
2021-09-23 06:27:00,,0829.1,5.01,0.00,30.3,29.4,00.0,39.5,32.1,09.1,0000.0,0007.45,0001.72,0001.21
2021-09-23 06:28:00,,0829.0,4.99,0.00,30.3,29.4,00.0,39.5,32.1,09.1,0000.0,0007.35,0001.67,0001.19
2021-09-23 06:29:00,,0828.8,5.01,0.00,30.4,29.4,00.0,39.5,32.1,09.0,0000.0,0007.39,0001.69,0001.17
2021-09-23 06:30:00,,0828.9,5.00,0.00,30.4,29.4,00.0,39.5,32.1,09.2,0000.0,0007.40,0001.72,0001.16
2021-09-23 06:31:00,,0828.8,4.99,0.00,30.4,29.5,00.0,39.5,32.1,09.3,0000.0,0006.87,0001.76,0001.16
2021-09-23 06:32:00,,0828.9,5.01,0.00,30.4,29.5,00.0,39.5,32.1,09.2,0000.0,0006.88,0001.76,0001.18
2021-09-23 06:33:00,,0828.8,5.00,0.00,30.4,29.5,00.0,39.5,32.1,09.2,0000.0,0006.91,0001.77,0001.18
2021-09-23 06:34:00,,0828.8,5.00,0.00,30.4,29.5,00.0,39.5,32.1,09.1,0000.0,0006.44,0001.77,0001.20
2021-09-23 06:35:00,,0829.2,5.00,0.00,30.3,27.9,00.0,39.5,31.7,09.0,0000.0,0005.58,0001.78,0001.21
2021-09-23 06:36:00,,0829.1,5.00,0.00,30.2,26.5,00.0,39.4,31.4,09.0,0000.0,0005.20,0001.82,0001.22
2021-09-23 06:37:00,,0828.7,5.00,0.00,30.0,26.4,00.0,39.4,31.3,09.1,0000.0,0004.37,0001.81,0001.22
2021-09-23 06:38:00,,0828.7,5.01,0.00,29.9,26.8,00.0,39.3,31.3,09.1,0000.0,0003.70,0001.79,0001.21
2021-09-23 06:39:00,,0828.7,4.99,0.00,29.9,27.2,00.0,39.2,31.3,09.1,0000.0,0004.25,0001.78,0001.20
2021-09-23 06:40:00,,0828.7,4.99,0.00,29.9,27.6,00.0,39.2,31.4,09.2,0000.0,0005.43,0001.80,0001.19
2021-09-23 06:41:00,,0828.7,5.01,0.00,29.9,27.9,00.0,39.2,31.4,09.3,0000.0,0005.54,0001.86,0001.19
2021-09-23 06:42:00,,0828.7,4.99,0.00,29.9,28.1,00.0,39.2,31.4,09.2,0000.0,0005.65,0001.88,0001.18
2021-09-23 06:43:00,,0828.7,5.02,0.00,29.9,28.3,00.0,39.1,31.5,09.1,0000.0,0005.72,0001.89,0001.17
2021-09-23 06:44:00,,0828.9,5.00,0.00,29.9,28.4,00.0,39.1,31.5,09.1,0000.0,0006.29,0001.87,0001.17
2021-09-23 06:45:00,,0829.0,4.98,0.00,29.9,28.5,00.0,39.1,31.5,09.1,0000.0,0005.98,0001.82,0001.17
2021-09-23 06:46:00,,0828.8,5.01,0.00,29.9,28.6,00.0,39.1,31.5,09.1,0000.0,0005.54,0001.81,0001.18
2021-09-23 06:47:00,,0828.7,4.99,0.00,29.9,28.6,00.0,39.1,31.6,09.1,0000.0,0005.45,0001.76,0001.18
2021-09-23 06:48:00,,0829.1,5.01,0.00,29.9,28.7,00.0,39.1,31.6,09.0,0000.0,0005.59,0001.73,0001.18
2021-09-23 06:49:00,,0829.2,5.00,0.00,29.9,28.7,00.0,39.1,31.6,08.9,0000.0,0005.71,0001.73,0001.19
2021-09-23 06:50:00,,0828.9,5.01,0.00,29.9,28.7,00.0,39.1,31.6,08.9,0000.0,0005.53,0001.75,0001.19
2021-09-23 06:51:00,,0828.6,4.99,0.00,29.9,28.8,00.0,39.1,31.6,08.8,0000.0,0004.06,0001.73,0001.20
2021-09-23 06:52:00,,0828.9,5.01,0.00,30.0,28.8,00.0,39.1,31.6,08.7,0000.0,0003.73,0001.64,0001.20
2021-09-23 06:53:00,,0829.1,5.00,0.00,30.0,28.8,00.0,39.1,31.6,08.7,0000.0,0003.58,0001.56,0001.20
2021-09-23 06:54:00,,0829.0,5.01,0.00,30.0,28.8,00.0,39.1,31.6,08.6,0000.0,0003.68,0001.55,0001.18
2021-09-23 06:55:00,,0828.9,4.99,0.00,30.0,28.8,00.0,39.1,31.7,08.6,0000.0,0002.98,0001.54,0001.16
2021-09-23 06:56:00,,0829.1,5.00,0.00,30.0,28.9,00.0,39.1,31.7,08.5,0000.0,0003.06,0001.56,0001.14
2021-09-23 06:57:00,,0829.1,5.00,0.00,30.0,28.9,00.0,39.1,31.7,08.4,0000.0,0003.09,0001.56,0001.10
2021-09-23 06:58:00,,0829.2,4.98,0.00,30.0,28.9,00.0,39.1,31.7,08.4,0000.0,0003.05,0001.53,0001.08
2021-09-23 06:59:00,,0829.0,5.01,0.00,30.0,28.9,00.0,39.1,31.7,08.5,0000.0,0002.82,0001.49,0001.06
